User: anonymous   Login
Location: Unspecified
(0.0000°N, 0.0000°E)
Time: 00:01:44
(UTC+00:00)
Language:

NNS O-31 - Orbit

View from above orbital plane
View from above orbital plane
View from above satellite
View from above satellite

Ground track
Ground track

The orbit data is extracted from the following two-line orbital elements,

1 19420U 88074B   21027.80081168  .00000004  00000-0 -68294-5 0  9996
2 19420  89.9967  17.9458 0092748 277.2244 135.0314 13.42259089587985
Epoch (UTC): 27 January 2021 19:13:10
Eccentricity: 0.0092748
inclination: 89.9967°
perigee height: 1031 km
apogee height: 1170 km
right ascension of ascending node: 17.9458°
argument of perigee: 277.2244°
revolutions per day: 13.42259089
mean anomaly at epoch: 135.0314°
orbit number at epoch: 58798

The dashed part of the orbit path shows where the satellite is in the earth's shadow,  

DLR